Montrose, CO

5:16 PM MST on November 18, 2017 (GMT -0700)
Montrose Regional

Weather History for KMTJ - April, 2013

Change the Weather History Date:

Wednesday, April 24, 2013

  Actual Average Record
Temperature  
Mean Temperature 44 °F 51 °F  
Max Temperature 57 °F 65 °F 85 °F (2012)
Min Temperature 31 °F 37 °F 29 °F (2014)
Degree Days  
Heating Degree Days 21 14  
Month to date heating degree days 469 406  
Since 1 July heating degree days 5855 5862  
Cooling Degree Days 0 0  
Month to date cooling degree days 0 0  
Year to date cooling degree days 0 0  
Moisture  
Dew Point 14 °F    
Average Humidity 35    
Maximum Humidity 54    
Minimum Humidity 15    
Precipitation  
Precipitation 0.00 in 0.04 in 0.42 in (2007)
Month to date precipitation 0.84 0.79  
Year to date precipitation 2.07 3.04  
Sea Level Pressure  
Sea Level Pressure 30.11 in    
Wind  
Wind Speed 4 mph (ESE)    
Max Wind Speed 13 mph    
Max Gust Speed 15 mph    
Visibility 10 miles    
Events      
T = Trace of Precipitation, MM = Missing Value Source: NWS Daily Summary

Daily Weather History Graph

Daily Weather History Graph

Search for Another Location

Airport or City:

Trip Planner

Search our weather history database for the weather conditions in past years. The results will help you decide how hot, cold, wet, or windy it might be!

Date:

Astronomy

Apr. 24, 2013 Rise Set
Actual Time 6:22 AM MDT 7:57 PM MDT
Civil Twilight 5:54 AM MDT 8:25 PM MDT
Nautical Twilight 5:21 AM MDT 8:59 PM MDT
Astronomical Twilight 4:45 AM MDT 9:34 PM MDT
Moon 7:04 PM MDT (4/24) 5:27 AM MDT (4/24)
Length of Visible Light 14h 30m
Length of Day
13h 34m
Waxing Gibbous, 98% of the Moon is Illuminated
Apr 24
Waxing Gibbous
Apr 25
Full
May 2
Last Quarter
May 9
New
May 17
First Quarter

Hourly Weather History & Observations

Time (MDT) Temp. Windchill Dew Point Humidity Pressure Visibility Wind Dir Wind Speed Gust Speed Precip Events Conditions
12:53 AM 36.0 °F 28.0 °F 16.0 °F 44% 30.10 in 10.0 mi SE 11.5 mph - N/A   Clear
1:53 AM 36.0 °F 29.6 °F 16.0 °F 44% 30.07 in 10.0 mi SE 8.1 mph - N/A   Clear
2:53 AM 37.0 °F 31.0 °F 12.9 °F 37% 30.05 in 10.0 mi East 8.1 mph - N/A   Scattered Clouds
4:53 AM 33.1 °F - 18.0 °F 54% 30.09 in 10.0 mi Calm Calm - N/A   Clear
5:53 AM 32.0 °F 28.7 °F 17.1 °F 54% 30.09 in 10.0 mi ESE 3.5 mph - N/A   Clear
6:53 AM 32.0 °F 24.8 °F 18.0 °F 56% 30.11 in 10.0 mi SSE 8.1 mph - N/A   Partly Cloudy
7:53 AM 35.1 °F 30.1 °F 19.0 °F 52% 30.14 in 10.0 mi SE 5.8 mph - N/A   Clear
8:53 AM 39.0 °F - 17.1 °F 41% 30.15 in 10.0 mi Calm Calm - N/A   Clear
9:53 AM 43.0 °F - 14.0 °F 31% 30.16 in 10.0 mi Calm Calm - N/A   Clear
10:53 AM 44.1 °F 41.5 °F 15.1 °F 31% 30.18 in 10.0 mi North 4.6 mph - N/A   Clear
11:53 AM 52.0 °F - 10.9 °F 19% 30.15 in - North - - N/A   Clear
12:53 PM 50.0 °F - 7.0 °F 18% 30.15 in 10.0 mi Calm Calm - N/A   Clear
1:53 PM 52.0 °F - 7.0 °F 16% 30.13 in 10.0 mi Calm Calm - N/A   Clear
2:53 PM 52.0 °F - 7.0 °F 16% 30.11 in 10.0 mi Calm Calm - N/A   Clear
3:53 PM 54.0 °F - 8.1 °F 16% 30.08 in 10.0 mi NW 4.6 mph - N/A   Clear
4:53 PM 55.9 °F - 10.0 °F 16% 30.07 in 10.0 mi NNW 4.6 mph - N/A   Clear
5:53 PM 57.0 °F - 10.0 °F 15% 30.07 in 10.0 mi North 4.6 mph - N/A   Clear
6:53 PM 55.9 °F - 9.0 °F 15% 30.07 in 10.0 mi NNE 5.8 mph - N/A   Clear
7:53 PM 52.0 °F - 12.0 °F 20% 30.08 in 10.0 mi Calm Calm - N/A   Clear
8:53 PM 46.9 °F - 16.0 °F 29% 30.10 in 10.0 mi Calm Calm - N/A   Clear
9:53 PM 41.0 °F 35.2 °F 19.9 °F 43% 30.12 in 10.0 mi SSE 9.2 mph - N/A   Clear
10:53 PM 39.0 °F 34.0 °F 21.9 °F 50% 30.12 in 10.0 mi SSE 6.9 mph - N/A   Clear
11:53 PM 37.9 °F 31.5 °F 21.0 °F 51% 30.09 in 10.0 mi SSE 9.2 mph - N/A   Clear